Regional Weather Roundup
Issued by NWS Sterling, VA

Home | Current Version | Previous Version | Text Only | Print | Product List | Glossary On
Versions: 1 2 3 4 5 6 7 8 9 10 11 12 13 14 15 16 17 18 19 20 21 22 23 24 25 26 27
000
ASUS41 KLWX 270511
RWRLWX

REGIONAL WEATHER ROUNDUP
NATIONAL WEATHER SERVICE BALTIMORE MD/WASHINGTON DC
100 AM EDT FRI APR 27 2018

Note: "FAIR" indicates few or no clouds below 12,000 feet
with no significant weather and/or obstructions to visibility.
 TC=TEMPERATURE CELSIUS

 * =Non NWS site. Station does not report precipitation (e.g. rain,
    snow, etc.), thunder, or fog.

DCZ001-MDZ009-015-VAZ040>042-051-053>054-270600-
WASHINGTON METRO

CITY           SKY/WX    TMP DP  RH WIND       PRES   REMARKS
WASHINGTON NAT CLOUDY    60  46  59 NE7       29.83F
DULLES         CLOUDY    59  42  53 NE5       29.82F
ANDREWS AFB    FAIR      56  45  65 E6        29.82F
FT BELVOIR     FAIR      57  46  66 CALM      29.81F
QUANTICO       MOCLDY    60  51  72 E6        29.82F
COLLEGE PARK*  MOCLDY    57  44  61 CALM      29.84F
LEESBURG*      MOCLDY    61  41  48 NE3       29.84F
MANASSAS*      CLOUDY    60  44  55 NE3       29.81F
GAITHERSBURG*  FAIR      57  41  55 E5        29.84F

$$

MDZ006>007-011-014-270600-
BALTIMORE METRO

CITY           SKY/WX    TMP DP  RH WIND       PRES   REMARKS
BWI AIRPORT    CLOUDY    59  45  59 SE3       29.84F
MD SCIENCE CTR   N/A     62  44  51 MISG      29.86S
MARTIN STATE   FAIR      57  54  88 CALM      29.87F
ANNAPOLIS      FAIR      61  50  67 E7        29.84F
FORT MEADE*    FAIR      57  45  62 SE6       29.87F

$$

MDZ012-015-019>023-270600-
MARYLAND EASTERN SHORE

CITY           SKY/WX    TMP DP  RH WIND       PRES   REMARKS
OCEAN CITY     FAIR      53  47  79 S3        29.88F
SALISBURY      FAIR      51  46  83 CALM      29.86F
BAY BRIDGE AP* FAIR      59  45  58 E6        29.85F
CAMBRIDGE*     CLEAR     55  48  76 MISG      29.85F

$$

MDZ017>025-270600-
SOUTHERN MARYLAND

CITY           SKY/WX    TMP DP  RH WIND       PRES   REMARKS
PATUXENT RIVER FAIR      58  52  80 SE7       29.83F
ST INIGOES     NOT AVBL
LEONARDTOWN*   FAIR      55  45  67 E6        29.84F

$$

MDZ003>005-270600-
NORTH CENTRAL MARYLAND

CITY           SKY/WX    TMP DP  RH WIND       PRES   REMARKS
FREDERICK*     CLOUDY    52  45  76 CALM      29.87F
HAGERSTOWN APT FAIR      59  38  45 NE5       29.84S
WESTMINSTER*   MOCLDY    57  41  54 SE5       29.85F

$$

MDZ501>502-270600-
WESTERN MARYLAND

CITY           SKY/WX    TMP DP  RH WIND       PRES   REMARKS
OAKLAND*       FAIR      46  32  57 E3        29.84F
CUMBERLAND*    FAIR      55  36  47 CALM      29.88F

$$

VAZ025>031-270600-
SHENANDOAH VALLEY

CITY           SKY/WX    TMP DP  RH WIND       PRES   REMARKS
WINCHESTER*    CLOUDY    55  37  50 CALM      29.84F
FRONT ROYAL*   CLOUDY    55  45  67 CALM      29.82F
LURAY*         CLOUDY    59  37  44 N7        29.80F
NEW MARKET*    CLOUDY    57  39  49 N7        29.79F
STAUNTON*      LGT RAIN  56  49  76 CALM      29.82S
WAYNESBORO*    CLOUDY    57  46  67 W5        29.82R

$$

WVZ021-048>050-054>055-270600-
EASTERN WEST VIRGINIA PANHANDLE

CITY           SKY/WX    TMP DP  RH WIND       PRES   REMARKS
MARTINSBURG    CLOUDY    57  40  52 N3        29.83F
PETERSBURG*    CLOUDY    53  47  77 CALM      29.82F

$$

VAZ036>039-050-270600-
CENTRAL FOOTHILLS

CITY           SKY/WX    TMP DP  RH WIND       PRES   REMARKS
CHARLOTTESVILL LGT RAIN  60  47  61 CALM      29.79F
CULPEPER*      FAIR      60  41  51 N5        29.82F
ORANGE*        CLOUDY    57  50  77 CALM      29.80S
GORDONSVILLE*  CLOUDY    59  53  79 CALM      29.79S
WARRENTON*     FAIR      60  41  49 NE5       29.80F

$$

VAZ055>057-270600-
NORTH AND CENTRAL PIEDMONT

CITY           SKY/WX    TMP DP  RH WIND       PRES   REMARKS
FREDERICKSBRG* FAIR      60  51  72 E3        29.79F
STAFFORD*      MOCLDY    59  50  72 NE5       29.84F

$$

NCZ024-NYZ072-PAZ021-071-VAZ022-071-270600-
OTHER REGIONAL OBSERVATIONS

CITY           SKY/WX    TMP DP  RH WIND       PRES   REMARKS
NEW YORK CITY  FAIR      59  40  49 E5        29.91R
PHILADELPHIA   CLOUDY    56  45  66 CALM      29.87F
PITTSBURGH     CLOUDY    52  37  56 CALM      29.82F
ROANOKE        CLOUDY    54  53  97 W3        29.83F
RICHMOND       CLOUDY    60  55  83 E10       29.76F
RALEIGH        LGT RAIN  59  59 100 NW5       29.81F

$$

ANZ530>537-270600-
MARINE OBSERVATIONS

STATION/POSITION TIME  TEMP    WIND        PRES
                       AIR SEA DIR/SP/G
                 (UTC) (F)     (DEG/KT/KT) (MB)
THOMAS PT LIGHT  0500   59 55  100/  8/  8 1011.5F
BALT KEY BRIDGE  0442   59     110/  5/  6 1011.0F
COVE POINT       0442   56     160/ 10/ 11 1011.0F
LEWISETTA        0442   59 59  160/  3/  5 1010.0F
SOLOMONS ISLAND  0442   56 55  100/  7/  8 1009.9F
PINEY POINT      0442          130/ 11/ 12   N/A

$$





USA.gov is the U.S. government's official web portal to all federal, state and local government web resources and services.